Temp
-3 -3 -3 -3 -3 -3 -3 -3 -3 -3 -3 -3 -3 -2 -2 -2 -2 -2 -3 -3 -4 -4 -4 -5 -5 -5 -6 -6 -6 -6 -7 -6 -7 -5 -5 -5 -5 -5 -5 -5 -5 -5 -5 -5 -4
-3 -3 -3 -3 -3 -3 -3 -3 -3 -3 -3 -3 -3 -2 -2 -2 -2 -2 -3 -3 -3 -4 -4 -4 -5 -5 -7 -7 -6 -6 -6 -5 -5 -6 -5 -5 -5 -5 -5 -5 -5 -5 -5 -5 -5
-3 -3 -3 -3 -3 -3 -3 -3 -3 -3 -3 -3 -3 -3 -3 -2 -2 -2 -3 -3 -3 -4 -4 -4 -5 -6 -7 -7 -6 -7 -5 -5 -5 -5 -6 -6 -5 -5 -5 -5 -5 -5 -5 -5 -5
-3 -3 -3 -3 -3 -3 -3 -3 -3 -3 -3 -3 -3 -3 -3 -3 -3 -2 -2 -3 -3 -4 -4 -4 -4 -7 -7 -8 -7 -6 -6 -6 -5 -6 -6 -6 -6 -5 -6 -6 -5 -4 -5 -5 -5
-3 -3 -3 -3 -3 -3 -3 -3 -3 -3 -3 -3 -3 -3 -3 -3 -3 -2 -2 -3 -3 -3 -4 -4 -6 -7 -7 -7 -7 -7 -6 -6 -6 -6 -6 -6 -6 -6 -6 -6 -5 -5 -5 -5 -5
-3 -3 -3 -3 -3 -3 -3 -3 -3 -3 -3 -3 -3 -3 -3 -3 -3 -3 -3 -3 -3 -3 -4 -4 -4 -6 -7 -6 -6 -6 -6 -6 -6 -6 -6 -6 -6 -6 -6 -6 -6 -6 -5 -5 -5
-4 -4 -4 -4 -3 -3 -3 -3 -3 -3 -3 -3 -3 -3 -3 -3 -3 -3 -3 -3 -3 -3 -3 -4 -4 -5 -7 -6 -5 -6 -6 -6 -6 -6 -6 -6 -6 -6 -6 -6 -6 -6 -6 -6 -6
-6 -5 -5 -5 -4 -4 -4 -3 -3 -3 -3 -3 -3 -3 -3 -3 -3 -3 -3 -3 -3 -3 -4 -4 -4 -5 -6 -5 -5 -6 -7 -6 -6 -6 -6 -6 -6 -6 -6 -6 -6 -6 -6 -6 -6
-6 -6 -6 -6 -5 -5 -5 -4 -4 -4 -4 -3 -3 -3 -3 -3 -3 -3 -3 -3 -3 -3 -4 -4 -4 -4 -5 -4 -6 -6 -6 -6 -6 -6 -6 -6 -6 -6 -6 -6 -6 -6 -6 -6 -6
-6 -6 -6 -6 -6 -6 -6 -5 -5 -5 -4 -4 -4 -4 -3 -3 -3 -3 -3 -3 -3 -3 -4 -4 -4 -4 -5 -6 -6 -6 -6 -7 -7 -5 -6 -6 -6 -5 -5 -5 -5 -6 -6 -6 -6
-6 -6 -6 -6 -6 -6 -6 -6 -6 -5 -5 -5 -4 -4 -4 -4 -4 -3 -3 -3 -3 -3 -3 -4 -5 -4 -7 -6 -6 -5 -6 -7 -6 -5 -6 -6 -7 -6 -6 -5 -6 -6 -6 -6 -6
-6 -6 -6 -6 -6 -6 -6 -6 -6 -6 -5 -5 -5 -5 -4 -4 -4 -4 -4 -4 -4 -4 -4 -4 -4 -5 -7 -7 -7 -6 -6 -6 -6 -5 -6 -7 -7 -7 -6 -6 -5 -6 -6 -6 -6
-6 -5 -6 -6 -6 -6 -6 -6 -6 -6 -6 -6 -5 -5 -5 -5 -4 -4 -4 -4 -4 -4 -4 -4 -5 -4 -7 -7 -7 -7 -6 -6 -7 -5 -6 -6 -7 -6 -6 -5 -5 -6 -6 -6 -6
-6 -6 -6 -6 -6 -6 -6 -6 -6 -6 -6 -5 -5 -5 -5 -5 -5 -4 -4 -4 -4 -5 -5 -5 -6 -6 -5 -6 -7 -6 -6 -6 -5 -5 -6 -6 -5 -7 -6 -6 -5 -6 -6 -6 -6
-6 -6 -6 -6 -6 -6 -6 -6 -6 -6 -7 -5 -5 -6 -6 -6 -5 -5 -5 -5 -5 -5 -5 -5 -5 -4 -5 -5 -6 -7 -7 -7 -7 -5 -6 -5 -5 -6 -7 -7 -6 -5 -6 -6 -6
-6 -6 -6 -6 -6 -6 -6 -6 -7 -7 -8 -6 -6 -6 -6 -6 -6 -5 -5 -5 -6 -5 -5 -5 -5 -5 -5 -5 -6 -7 -7 -6 -6 -7 -6 -5 -5 -6 -6 -6 -6 -6 -6 -6 -6
-6 -6 -6 -6 -6 -6 -6 -7 -7 -7 -7 -7 -6 -7 -7 -7 -7 -6 -6 -6 -6 -6 -5 -6 -5 -5 -5 -5 -5 -5 -5 -6 -6 -6 -5 -4 -5 -5 -7 -7 -7 -7 -6 -6 -6
-6 -6 -6 -6 -6 -6 -6 -7 -7 -8 -8 -7 -7 -7 -7 -7 -7 -7 -6 -6 -6 -6 -7 -6 -6 -5 -5 -5 -6 -5 -6 -6 -6 -5 -4 -5 -5 -5 -7 -7 -6 -6 -6 -6 -6
-6 -6 -6 -6 -6 -6 -7 -7 -8 -9 -7 -7 -7 -7 -7 -8 -8 -7 -7 -7 -7 -7 -8 -7 -7 -7 -6 -6 -5 -6 -6 -6 -5 -5 -4 -5 -6 -6 -6 -7 -5 -5 -6 -6 -7
-6 -6 -6 -6 -6 -6 -7 -7 -7 -7 -7 -7 -8 -9 -9 -8 -8 -8 -8 -8 -8 -7 -7 -8 -8 -8 -6 -6 -6 -6 -7 -6 -6 -6 -5 -4 -5 -5 -6 -7 -7 -6 -6 -6 -7
-6 -6 -6 -6 -6 -6 -7 -7 -7 -7 -7 -8 -8 -8 -9 -9 -9 -9 -9 -9 -7 -7 -7 -7 -8 -7 -7 -5 -6 -6 -6 -6 -6 -5 -5 -5 -5 -5 -6 -6 -7 -7 -6 -6 -7
-6 -6 -6 -6 -6 -6 -7 -7 -7 -7 -7 -8 -8 -8 -8 -10 -9 -9 -9 -9 -8 -7 -7 -7 -8 -7 -8 -6 -6 -7 -7 -6 -6 -6 -6 -5 -5 -6 -6 -7 -7 -7 -6 -7 -7
-7 -6 -6 -7 -7 -7 -7 -7 -7 -7 -7 -8 -8 -8 -8 -8 -9 -9 -9 -9 -8 -7 -7 -7 -7 -7 -7 -7 -7 -7 -7 -7 -6 -6 -6 -5 -5 -6 -7 -7 -7 -6 -7 -7 -7
-7 -7 -7 -7 -7 -7 -7 -7 -7 -7 -7 -8 -8 -8 -8 -8 -9 -9 -9 -9 -8 -8 -7 -7 -8 -8 -6 -7 -7 -7 -6 -7 -6 -6 -5 -5 -6 -6 -7 -7 -7 -6 -7 -7 -7
-7 -7 -7 -7 -7 -7 -7 -7 -7 -8 -8 -8 -8 -8 -8 -9 -10 -9 -10 -10 -9 -8 -8 -8 -9 -8 -7 -7 -7 -7 -7 -7 -7 -7 -6 -5 -6 -6 -7 -7 -7 -7 -7 -7 -7
-8 -8 -7 -7 -7 -7 -7 -7 -8 -8 -8 -8 -9 -9 -8 -9 -10 -9 -10 -9 -9 -9 -8 -8 -9 -8 -8 -8 -8 -8 -7 -7 -7 -7 -7 -6 -6 -7 -7 -7 -7 -7 -7 -7 -7
-8 -8 -8 -8 -8 -8 -8 -8 -8 -8 -8 -8 -8 -8 -8 -9 -8 -9 -9 -9 -9 -9 -9 -8 -9 -8 -8 -8 -8 -8 -7 -7 -7 -7 -7 -7 -7 -7 -7 -7 -7 -7 -7 -7 -7
Height
5938 5939 5940 5940 5940 5940 5941 5942 5942 5942 5942 5942 5941 5941 5941 5940 5940 5941 5941 5941 5941 5940 5939 5938 5936 5935 5934 5933 5934 5933 5939 5932 5931 5929 5928 5927 5926 5926 5925 5925 5925 5925 5925 5925 5925
5934 5936 5937 5938 5939 5939 5939 5940 5941 5942 5942 5942 5942 5942 5942 5941 5941 5941 5942 5942 5942 5942 5942 5940 5938 5937 5940 5938 5938 5939 5938 5935 5933 5932 5931 5930 5929 5928 5927 5927 5927 5927 5927 5927 5927
5931 5932 5934 5935 5935 5936 5937 5938 5939 5940 5941 5941 5942 5942 5942 5942 5942 5942 5942 5943 5943 5943 5942 5942 5940 5941 5949 5943 5941 5940 5939 5937 5935 5934 5933 5932 5931 5930 5930 5930 5930 5929 5929 5929 5930
5928 5929 5930 5931 5932 5933 5934 5935 5936 5938 5939 5940 5940 5942 5942 5942 5944 5942 5943 5943 5943 5943 5943 5943 5941 5950 5952 5946 5942 5940 5940 5939 5938 5937 5935 5934 5933 5932 5932 5932 5931 5931 5930 5931 5931
5924 5925 5926 5927 5928 5929 5930 5931 5932 5934 5936 5937 5938 5939 5940 5942 5942 5942 5943 5943 5943 5944 5944 5944 5944 5951 5952 5946 5944 5942 5942 5942 5940 5940 5938 5937 5936 5935 5934 5933 5933 5933 5932 5932 5933
5919 5920 5921 5922 5923 5925 5926 5927 5929 5930 5932 5934 5935 5936 5938 5940 5940 5941 5942 5943 5943 5944 5945 5945 5945 5947 5949 5946 5947 5945 5945 5945 5944 5942 5941 5940 5938 5937 5936 5935 5934 5934 5934 5934 5933
5914 5915 5916 5917 5918 5919 5921 5922 5924 5926 5928 5930 5932 5933 5935 5938 5938 5939 5941 5942 5943 5944 5945 5945 5946 5946 5949 5948 5947 5947 5947 5946 5946 5945 5944 5942 5942 5940 5938 5937 5936 5936 5936 5936 5935
5910 5911 5911 5912 5913 5914 5915 5916 5918 5920 5922 5925 5927 5929 5930 5934 5936 5937 5938 5941 5942 5943 5944 5945 5945 5946 5948 5948 5948 5949 5950 5949 5948 5948 5946 5945 5944 5943 5941 5939 5939 5938 5937 5937 5937
5906 5907 5907 5908 5908 5909 5910 5912 5913 5915 5917 5919 5922 5924 5926 5929 5931 5934 5936 5938 5941 5942 5944 5944 5945 5946 5948 5947 5951 5950 5953 5954 5949 5948 5948 5947 5946 5944 5944 5942 5941 5940 5939 5939 5939
5902 5902 5903 5904 5905 5905 5906 5907 5908 5910 5912 5913 5916 5919 5921 5923 5927 5929 5932 5934 5937 5940 5943 5944 5945 5946 5947 5951 5930 5951 5954 5953 5952 5949 5949 5948 5948 5946 5945 5944 5943 5941 5941 5940 5940
5897 5897 5899 5900 5901 5902 5903 5904 5905 5906 5907 5909 5911 5912 5915 5918 5921 5924 5927 5930 5933 5937 5940 5942 5944 5945 5950 5953 5950 5950 5955 5955 5951 5951 5950 5950 5949 5947 5946 5945 5945 5944 5943 5942 5941
5892 5893 5894 5896 5897 5898 5899 5900 5900 5901 5903 5904 5906 5907 5910 5913 5916 5919 5923 5926 5929 5934 5936 5940 5941 5944 5947 5953 5952 5951 5957 5957 5953 5951 5952 5952 5952 5945 5946 5946 5945 5945 5944 5943 5942
5888 5889 5891 5891 5893 5894 5895 5896 5896 5897 5898 5900 5900 5902 5905 5907 5910 5912 5917 5921 5924 5928 5932 5936 5940 5941 5945 5948 5951 5952 5957 5957 5954 5951 5951 5952 5952 5949 5945 5945 5945 5945 5944 5943 5943
5884 5885 5887 5887 5888 5888 5889 5891 5893 5894 5895 5896 5897 5898 5900 5901 5904 5906 5911 5916 5918 5923 5927 5931 5933 5936 5940 5943 5947 5952 5955 5954 5950 5950 5956 5951 5947 5934 5941 5942 5943 5943 5943 5942 5943
5882 5882 5883 5883 5884 5884 5885 5886 5888 5890 5894 5890 5893 5894 5895 5897 5898 5902 5905 5908 5913 5917 5922 5926 5930 5933 5935 5940 5942 5948 5950 5949 5949 5948 5951 5953 5951 5937 5945 5942 5942 5941 5943 5942 5942
5880 5880 5880 5881 5880 5881 5881 5883 5885 5889 5889 5888 5889 5890 5890 5892 5894 5895 5900 5903 5908 5911 5914 5920 5921 5927 5933 5934 5937 5942 5945 5944 5945 5948 5950 5951 5952 5938 5926 5943 5942 5941 5941 5942 5942
5876 5876 5877 5877 5878 5878 5878 5879 5883 5884 5883 5884 5885 5886 5887 5888 5889 5891 5894 5898 5903 5908 5912 5916 5919 5925 5928 5930 5933 5936 5940 5944 5947 5949 5950 5950 5948 5943 5937 5939 5944 5942 5942 5942 5941
5872 5872 5873 5873 5874 5874 5875 5877 5878 5880 5881 5881 5882 5884 5885 5885 5886 5887 5890 5893 5898 5903 5910 5912 5915 5919 5924 5928 5931 5933 5937 5942 5946 5948 5949 5945 5944 5951 5939 5940 5942 5941 5942 5943 5943
5867 5867 5867 5869 5869 5870 5872 5873 5875 5876 5875 5878 5879 5881 5882 5883 5885 5885 5887 5890 5893 5898 5905 5914 5914 5917 5917 5922 5926 5931 5931 5938 5943 5946 5947 5946 5940 5946 5944 5941 5940 5939 5941 5942 5943
5862 5862 5862 5863 5864 5865 5867 5869 5869 5870 5872 5875 5877 5879 5884 5882 5883 5883 5885 5887 5890 5893 5898 5906 5909 5911 5912 5916 5920 5923 5932 5934 5937 5941 5942 5945 5944 5945 5941 5941 5940 5937 5940 5940 5941
5855 5856 5856 5857 5859 5860 5862 5863 5864 5866 5868 5871 5873 5876 5880 5883 5881 5884 5884 5886 5886 5890 5893 5899 5904 5911 5908 5912 5917 5920 5923 5928 5936 5939 5940 5942 5943 5940 5937 5939 5940 5935 5938 5938 5939
5849 5849 5849 5851 5853 5854 5855 5857 5860 5861 5863 5866 5869 5872 5874 5877 5879 5881 5883 5885 5882 5885 5888 5895 5901 5905 5907 5908 5913 5918 5920 5927 5930 5934 5936 5937 5938 5938 5933 5930 5933 5933 5935 5937 5938
5841 5842 5843 5845 5846 5848 5849 5851 5854 5857 5859 5861 5865 5868 5870 5872 5875 5876 5880 5881 5878 5882 5885 5889 5894 5902 5909 5909 5909 5911 5915 5922 5927 5931 5933 5935 5938 5931 5929 5926 5928 5931 5932 5934 5935
5834 5834 5836 5838 5840 5841 5842 5845 5848 5851 5854 5856 5860 5864 5867 5869 5871 5875 5877 5876 5876 5879 5880 5885 5892 5899 5907 5908 5909 5907 5910 5915 5921 5926 5930 5932 5932 5928 5925 5923 5926 5928 5930 5931 5933
5824 5827 5828 5831 5832 5834 5836 5838 5841 5845 5849 5851 5856 5859 5862 5866 5872 5871 5873 5874 5875 5877 5879 5883 5889 5895 5900 5902 5905 5908 5907 5908 5915 5920 5925 5929 5927 5926 5924 5918 5923 5926 5927 5929 5932
5815 5818 5820 5823 5825 5827 5829 5832 5834 5838 5843 5847 5850 5854 5857 5861 5864 5866 5868 5872 5879 5875 5877 5879 5884 5891 5896 5898 5900 5903 5906 5909 5911 5914 5919 5922 5923 5919 5917 5917 5920 5923 5924 5927 5930
5804 5807 5810 5814 5816 5819 5822 5825 5827 5830 5836 5838 5840 5846 5852 5853 5858 5862 5864 5866 5869 5872 5876 5877 5884 5890 5893 5896 5898 5901 5903 5906 5908 5910 5914 5917 5917 5914 5915 5916 5918 5919 5921 5924 5927
Wind_Speed
18 16 14 12 10 8 6 3 2 3 5 6 7 7 6 5 6 8 10 11 9 9 11 9 14 14 16 19 14 19 9 13 12 14 13 10 7 7 9 8 8 7 7 5 7
16 18 19 19 17 15 13 10 7 6 6 4 4 5 5 4 5 8 10 10 9 9 10 9 15 14 19 19 14 8 6 14 14 16 14 13 10 8 7 7 6 7 7 7 4
19 19 18 18 19 21 20 18 14 12 12 8 5 3 2 3 4 6 10 9 9 9 9 8 13 27 9 6 9 4 9 15 19 17 17 15 14 11 10 7 3 6 6 6 5
21 21 21 20 20 20 19 21 22 18 15 12 10 7 4 1 1 3 7 10 9 8 9 5 17 15 6 6 8 6 7 11 16 16 18 17 12 16 14 8 5 2 5 6 5
24 23 23 22 22 22 21 20 19 19 17 16 14 11 9 6 3 3 4 8 9 9 7 4 13 13 4 5 11 6 4 7 12 14 18 16 16 13 14 14 9 5 5 4 3
24 24 25 25 25 25 24 23 22 21 20 18 16 15 12 11 9 5 5 5 8 9 8 6 7 8 3 7 5 6 8 6 9 12 13 16 18 13 13 13 13 12 6 4 5
22 23 24 24 26 26 26 26 25 25 23 21 20 19 17 11 11 11 8 6 7 9 9 7 4 7 8 3 8 6 4 7 6 9 11 13 14 16 14 13 12 13 11 7 5
19 19 21 21 23 25 26 27 27 27 26 25 24 23 23 17 16 14 12 10 8 9 11 10 7 5 3 6 6 10 10 8 7 7 9 11 13 13 15 13 10 11 10 9 8
20 18 17 18 19 21 22 24 26 26 27 27 27 27 27 24 22 18 15 13 11 8 11 12 10 8 5 5 5 10 7 3 12 8 6 8 8 10 11 12 11 9 9 9 8
23 22 19 16 16 18 18 19 21 22 24 26 27 28 30 29 24 23 21 17 15 13 10 12 14 11 8 4 7 8 3 3 5 9 4 5 8 8 8 11 12 10 9 8 8
19 20 22 19 16 16 16 17 18 20 20 22 24 28 26 27 28 28 25 23 20 17 15 13 17 15 12 10 14 13 6 3 6 9 5 5 6 7 6 7 11 14 12 9 7
17 17 20 23 21 19 17 17 17 18 19 19 21 24 25 26 29 30 28 27 24 20 20 18 16 18 16 15 11 10 3 7 14 9 6 6 5 14 7 8 9 10 11 11 9
18 18 16 20 24 24 22 19 18 17 17 17 19 21 23 26 28 32 31 28 28 26 23 20 16 22 19 16 14 12 8 8 13 6 8 9 7 12 13 11 11 14 13 12 12
12 12 12 14 17 20 24 23 20 18 17 18 17 19 21 25 28 32 30 31 31 28 25 25 25 25 23 22 17 13 11 16 16 8 1 12 17 25 8 13 15 14 13 11 15
12 11 10 11 13 15 18 20 20 17 8 22 15 15 16 22 27 28 31 34 32 30 31 28 29 26 26 24 22 17 20 16 12 9 10 12 8 19 18 13 19 14 13 10 13
12 12 11 11 11 12 14 17 17 15 12 20 16 13 14 17 20 26 30 32 32 34 34 28 34 30 25 27 25 19 19 18 13 10 11 10 14 23 17 5 15 12 15 11 7
15 15 13 12 12 12 13 14 15 13 21 19 15 11 12 14 18 20 26 30 32 32 32 31 30 26 28 29 27 23 20 14 14 12 9 7 17 20 28 6 8 13 14 9 9
17 17 15 15 13 13 13 14 14 17 13 15 13 9 8 12 15 18 21 27 29 29 22 26 29 28 26 27 24 22 20 16 11 8 10 20 13 7 9 11 23 17 16 10 4
17 19 18 16 16 16 15 14 11 16 20 14 13 9 8 9 11 14 17 21 25 29 24 17 23 20 28 27 27 19 24 19 17 16 15 9 8 8 17 15 22 19 18 12 6
19 19 19 18 17 18 18 17 19 17 16 16 11 11 9 8 10 10 14 19 23 27 28 18 19 22 25 27 28 27 16 19 19 18 17 15 17 14 16 12 13 19 17 14 7
20 21 20 20 19 20 19 21 19 17 17 19 18 13 11 12 9 9 11 15 20 24 27 30 18 18 24 27 24 27 26 20 16 14 15 14 14 14 10 14 15 18 15 13 10
22 21 23 21 21 21 22 25 18 18 18 20 18 15 13 12 10 9 10 10 17 20 26 26 17 19 19 24 24 18 22 18 20 18 15 16 19 11 14 23 18 20 15 12 12
24 23 24 22 22 22 25 23 24 20 19 21 20 18 18 13 10 11 11 15 14 16 21 24 27 16 17 15 22 28 22 20 18 16 15 16 13 13 17 17 20 20 14 15 12
25 25 25 23 23 24 25 26 26 24 22 20 22 19 16 15 11 9 13 15 12 14 20 24 18 19 15 16 16 21 26 23 21 20 17 18 14 15 13 19 22 22 16 14 15
30 28 27 26 24 26 27 28 28 27 25 23 23 21 22 19 11 8 11 9 11 12 13 18 18 17 18 16 18 14 17 21 21 21 18 12 12 14 20 18 24 22 18 16 18
31 30 31 29 26 26 28 28 29 30 28 25 26 28 25 24 27 25 21 12 9 10 8 12 17 17 21 16 14 15 12 15 18 18 16 15 13 13 30 21 22 24 20 18 16
33 33 32 31 29 27 28 30 31 32 31 33 34 31 26 33 24 15 16 16 14 11 7 12 14 14 16 16 13 13 15 17 18 19 18 15 18 20 25 25 23 22 20 21 17
Wind_Direction
240 240 246 251 256 261 265 280 343 21 36 42 44 66 67 92 98 110 114 122 116 90 77 66 61 49 42 47 52 71 65 64 77 64 66 78 89 92 89 89 94 98 105 99 114
247 244 246 247 250 256 263 267 275 294 313 343 18 38 59 79 101 114 120 130 121 110 93 71 65 55 20 28 49 64 54 59 71 73 73 70 75 87 91 80 85 101 113 112 122
252 252 251 251 253 252 255 260 263 273 282 286 288 311 35 56 96 102 125 134 134 122 102 84 67 55 29 12 42 65 50 62 65 68 66 72 70 76 77 78 96 100 101 100 118
251 252 253 253 253 253 255 257 260 264 265 266 270 258 261 319 171 115 133 144 141 137 124 93 61 53 42 16 29 10 47 49 59 63 70 65 63 69 71 65 58 109 115 111 128
249 250 251 251 252 253 252 253 256 257 256 257 258 253 249 244 218 175 153 155 155 152 129 108 84 87 115 43 35 54 68 43 44 50 64 67 66 61 64 62 65 68 81 101 113
255 254 253 252 251 250 251 251 250 251 251 251 250 248 249 244 236 220 208 183 179 176 155 135 109 108 75 80 80 94 56 35 33 32 43 53 56 60 64 66 68 68 71 91 105
256 256 255 253 253 252 251 251 250 250 250 249 247 246 246 241 240 238 221 205 194 186 176 165 146 115 90 66 82 52 21 29 26 16 21 30 43 55 61 60 63 72 70 68 79
262 260 259 258 256 255 252 251 251 250 249 247 245 244 244 241 238 238 231 218 205 191 189 187 185 150 129 110 69 57 35 344 355 13 14 15 34 48 56 60 59 68 77 75 72
258 260 261 260 258 258 256 254 252 249 247 245 243 242 242 240 237 236 237 223 215 209 196 195 197 173 201 66 353 4 107 285 327 347 15 23 26 32 42 51 59 60 66 70 70
262 257 257 260 262 261 258 256 255 252 249 247 244 242 239 237 236 235 233 226 215 211 202 198 198 191 191 226 231 131 280 296 245 336 332 356 30 27 33 41 54 56 58 65 62
272 264 251 254 258 261 263 262 259 255 251 248 245 244 239 237 233 231 229 226 216 211 206 195 200 205 202 208 239 235 198 246 264 314 319 337 315 13 48 53 46 50 47 45 52
270 272 257 254 256 260 264 264 262 261 259 253 248 245 242 240 236 233 229 228 224 216 213 207 204 201 201 223 228 213 206 249 293 279 277 299 339 316 5 347 346 16 19 23 32
267 266 263 259 256 257 259 263 266 266 262 259 256 249 243 238 235 234 228 226 224 222 218 210 208 213 209 219 223 222 211 264 245 259 327 295 285 250 309 338 353 359 349 358 3
273 273 268 268 264 258 254 257 263 268 269 260 262 257 245 239 236 234 229 227 226 224 221 214 206 210 210 213 218 215 261 250 256 237 1 280 283 238 241 319 325 341 341 344 356
272 273 271 268 269 265 255 251 256 262 264 269 271 267 249 239 238 234 228 227 227 223 222 220 219 212 214 209 210 216 235 243 255 249 287 298 281 293 277 284 299 325 345 338 344
278 278 273 268 264 262 258 252 252 253 247 260 272 272 255 244 238 234 230 228 226 223 224 215 221 213 208 213 212 223 236 242 250 265 270 268 258 280 209 230 310 316 332 335 336
274 275 274 271 266 262 256 253 246 239 251 263 269 268 255 244 240 232 230 229 229 228 231 228 235 222 215 216 219 222 220 237 249 254 266 268 242 272 288 124 276 301 320 316 337
270 271 271 267 263 261 259 250 241 232 251 257 260 261 252 246 242 232 229 228 225 225 221 232 235 227 222 220 220 223 220 221 240 242 266 236 252 246 299 285 287 284 299 288 325
272 267 267 264 261 254 250 249 235 234 241 241 255 250 239 233 232 232 226 228 228 223 214 230 238 250 224 217 219 220 225 221 225 237 258 267 249 239 269 272 271 270 288 269 259
266 267 264 259 255 254 248 242 242 246 237 228 220 235 240 244 231 232 232 227 226 226 217 212 221 226 230 221 220 214 218 229 227 231 239 250 260 266 248 272 269 265 274 267 267
263 258 260 259 254 252 246 241 243 240 233 223 221 226 194 224 230 228 239 230 227 226 220 213 232 224 232 222 223 225 228 224 221 244 244 249 264 252 248 244 241 257 263 259 253
265 259 256 257 254 247 244 241 242 236 232 224 225 226 213 226 230 222 213 212 234 216 223 219 219 210 243 233 223 226 234 216 229 229 235 234 235 270 262 245 228 250 248 244 245
264 262 257 254 249 245 244 242 236 233 231 221 221 220 219 217 229 221 213 222 231 215 218 210 214 214 229 237 222 223 219 225 224 237 235 247 262 245 257 247 217 234 235 242 239
268 260 251 249 246 242 242 239 233 229 231 226 221 221 215 213 213 194 213 236 233 218 219 211 208 203 218 241 244 243 234 223 218 224 234 250 251 271 263 243 219 229 234 253 270
265 259 248 247 245 243 241 239 233 228 224 222 215 213 209 202 203 231 209 223 225 222 223 214 216 214 206 225 215 230 244 221 224 219 224 231 252 266 250 220 229 226 240 261 280
258 254 249 246 244 240 240 237 231 225 225 219 211 211 208 203 180 184 207 192 212 217 202 203 210 205 209 238 226 223 205 232 228 223 222 231 237 231 229 254 236 228 243 262 246
255 249 245 243 242 240 237 236 232 229 224 222 214 212 205 210 208 221 210 218 206 187 213 197 194 221 221 219 227 227 224 226 221 228 218 229 236 242 237 235 225 229 245 255 241